Location: Oshawa
(43.9000°N, 78.8670°W)
Time: 06:00:20
(UTC-04:00)

CZ-4C R/B - Visible Passes

Search period start: 23 July 2014 00:00
Search period end: 02 August 2014 00:00
Orbit: 439 x 558 km, 97.6° (Epoch: 21 July)

Date Brightness Start Highest point End Pass type
(mag) Time Alt. Az. Time Alt. Az. Time Alt. Az.
23 Jul 5.6 00:27:46 14° W 00:28:01 14° W 00:30:08 10° WNW visible
23 Jul 4.6 22:32:50 22° E 22:34:04 26° ENE 22:37:23 10° N visible
24 Jul 5.0 00:07:28 24° W 00:07:43 24° W 00:10:55 10° NW visible
24 Jul 5.2 22:12:32 13° E 22:14:08 17° ENE 22:16:41 10° NNE visible
24 Jul 4.1 23:47:11 40° WSW 23:47:29 40° W 23:51:13 10° NNW visible
25 Jul 5.6 21:53:29 10° ENE 21:54:16 11° ENE 21:55:03 10° NE visible
25 Jul 3.2 23:26:53 65° SSW 23:27:18 73° WSW 23:31:16 10° NNW visible
26 Jul 3.3 23:06:36 54° ESE 23:07:12 64° ENE 23:11:08 10° N visible
27 Jul 6.0 00:41:14 10° W 00:41:20 10° W 00:41:56 10° W visible
27 Jul 4.1 22:46:18 32° E 22:47:09 37° ENE 22:50:50 10° N visible
28 Jul 5.5 00:20:57 18° W 00:20:59 18° W 00:23:42 10° NW visible
28 Jul 4.8 22:26:01 20° E 22:27:10 23° ENE 22:30:19 10° NNE visible
29 Jul 4.7 00:00:39 29° W 00:00:42 29° W 00:04:13 10° NW visible
29 Jul 5.4 22:05:43 12° E 22:07:15 15° ENE 22:09:27 10° NNE visible
29 Jul 3.8 23:40:22 50° WSW 23:40:29 51° W 23:44:23 10° NNW visible
30 Jul 3.1 23:20:05 78° S 23:20:20 89° WSW 23:24:21 10° NNW visible
31 Jul 3.5 22:59:47 49° E 23:00:14 52° ENE 23:04:08 10° N visible
01 Aug 5.9 00:34:26 13° W 00:34:26 13° W 00:36:08 10° WNW visible
01 Aug 4.3 22:39:30 29° E 22:40:12 31° ENE 22:43:45 10° N visible
